TimeMDT,TemperatureF,Dew PointF,Humidity,Sea Level PressureIn,VisibilityMPH,Wind Direction,Wind SpeedMPH,Gust SpeedMPH,PrecipitationIn,Events,Conditions,WindDirDegrees,DateUTC
12:56 AM,52.0,43.0,71,30.06,10.0,South,5.8,-,N/A,,Clear,170,2013-09-10 06:56:00
1:56 AM,46.0,42.1,86,30.08,10.0,ESE,6.9,-,N/A,,Clear,120,2013-09-10 07:56:00
2:56 AM,44.1,39.9,85,30.08,10.0,SSE,5.8,-,N/A,,Clear,150,2013-09-10 08:56:00
3:56 AM,44.1,39.9,85,30.08,10.0,SSE,5.8,-,N/A,,Clear,160,2013-09-10 09:56:00
4:56 AM,44.1,39.9,85,30.08,10.0,South,3.5,-,N/A,,Clear,170,2013-09-10 10:56:00
5:56 AM,39.9,37.9,93,30.11,10.0,SE,5.8,-,N/A,,Clear,130,2013-09-10 11:56:00
6:56 AM,42.1,39.0,89,30.12,10.0,SE,6.9,-,N/A,,Clear,130,2013-09-10 12:56:00
7:56 AM,48.0,42.1,80,30.13,10.0,SSE,3.5,-,N/A,,Clear,150,2013-09-10 13:56:00
8:56 AM,54.0,43.0,66,30.14,10.0,Variable,3.5,-,N/A,,Clear,0,2013-09-10 14:56:00
9:56 AM,60.1,44.1,55,30.13,10.0,Calm,Calm,-,N/A,,Clear,0,2013-09-10 15:56:00
10:56 AM,66.0,44.1,45,30.11,10.0,Calm,Calm,-,N/A,,Clear,0,2013-09-10 16:56:00
11:56 AM,69.1,43.0,39,30.11,10.0,Variable,3.5,-,N/A,,Clear,0,2013-09-10 17:56:00
12:56 PM,72.0,42.1,34,30.07,10.0,Calm,Calm,-,N/A,,Clear,0,2013-09-10 18:56:00
1:56 PM,75.0,41.0,29,30.06,10.0,Variable,3.5,-,N/A,,Clear,0,2013-09-10 19:56:00
2:56 PM,79.0,37.9,23,30.04,10.0,North,6.9,-,N/A,,Clear,360,2013-09-10 20:56:00
3:56 PM,80.1,33.1,18,30.02,10.0,Variable,4.6,-,N/A,,Clear,0,2013-09-10 21:56:00
4:56 PM,80.1,30.9,17,30.01,10.0,WNW,6.9,-,N/A,,Clear,290,2013-09-10 22:56:00
5:56 PM,78.1,32.0,19,30.02,10.0,West,4.6,-,N/A,,Clear,260,2013-09-10 23:56:00
6:56 PM,77.0,34.0,21,30.03,10.0,West,6.9,-,N/A,,Clear,260,2013-09-11 00:56:00
7:56 PM,71.1,35.1,27,30.04,10.0,SSW,4.6,-,N/A,,Clear,200,2013-09-11 01:56:00
8:56 PM,57.0,42.1,57,30.09,10.0,South,5.8,-,N/A,,Clear,170,2013-09-11 02:56:00
9:56 PM,60.1,42.1,51,30.08,10.0,South,9.2,-,N/A,,Clear,170,2013-09-11 03:56:00
10:56 PM,52.0,42.1,69,30.09,10.0,SSE,9.2,-,N/A,,Clear,160,2013-09-11 04:56:00
11:56 PM,51.1,41.0,68,30.11,10.0,Calm,Calm,-,N/A,,Clear,0,2013-09-11 05:56:00